Home > Weather > Aurora > Past weeks

Flag for USA Past Weather in Aurora, Colorado, USA — Yesterday and Last 2 Weeks

Now
67 °F

Passing clouds.


Feels Like: 67 °F
Forecast: 62 / 90 °F
Wind: 2 mph from Northeast

Location: Buckley Air Force Base

Current Time: Jul 28, 2016 at 8:34:52 AM

Latest Report: Jul 28, 2016 at 7:58 AM


Visibility: 10 mi

Pressure: 29.96 "Hg (24.72 "Hg at 1647m altitude)

Humidity: 70%

Dew Point: 57 °F

Location of AuroraLocation

Past Weather in Aurora — Graph

°F

Aurora Temperature Yesterday

Maximum temperature yesterday: 91 °F (at 5:58 PM)
Minimum temperature yesterday: 61 °F (at 5:58 AM)
Average temperature yesterday: 76 °F

High & Low Weather Summary for the Past Weeks

 TemperatureHumidityPressure
High95 °F (Jul 23, 3:58 PM)91% (Jul 15, 11:58 PM)30.21 "Hg (Jul 15, 11:58 PM)
Low56 °F (Jul 14, 5:58 AM)9% (Jul 16, 2:58 PM)29.67 "Hg (Jul 16, 2:58 PM)
Average76 °F44%29.94 "Hg
* Reported Jul 13 6:58 AM — Jul 28 6:58 AM, Aurora, Weather by CustomWeather, © 2016

Note: Actual official high and low records may vary slightly from our data, if they occured in-between our weather recording intervals... More about our weather records

Advertising

Aurora Weather History for the Previous 24 Hours

Scroll right to see more
 ConditionsComfort  
Time TempWeatherWind HumidityBarometerVisibility
6:58 AM
Thu, Jul 28
64 °FPassing clouds.7 mph78%29.95 "Hg10 mi
5:58 AM60 °FPassing clouds.2 mph85%29.94 "Hg10 mi
4:58 AM62 °FPassing clouds.3 mph81%29.94 "Hg10 mi
3:58 AM64 °FPassing clouds.5 mph76%29.92 "Hg10 mi
2:58 AM66 °FPassing clouds.6 mph72%29.93 "Hg10 mi
1:58 AM68 °FPassing clouds.8 mph69%29.96 "Hg10 mi
12:58 AM70 °FPassing clouds.12 mph63%29.97 "Hg10 mi
11:58 PM
Wed, Jul 27
71 °FPartly cloudy.12 mph56%29.98 "Hg10 mi
10:58 PM70 °FPartly cloudy.10 mph54%30.00 "Hg10 mi
9:58 PM74 °FPartly cloudy.7 mph46%29.99 "Hg10 mi
8:58 PM76 °FBroken clouds.13 mph52%29.95 "Hg10 mi
7:58 PM79 °FBroken clouds.17 mph52%29.91 "Hg10 mi
6:58 PM89 °FBroken clouds.17 mph21%29.89 "Hg10 mi
5:58 PM91 °FPassing clouds.1 mph17%29.88 "Hg10 mi
4:58 PM91 °FPassing clouds.1 mph17%29.89 "Hg10 mi
3:58 PM91 °FPassing clouds.7 mph20%29.90 "Hg10 mi
2:58 PM89 °FPassing clouds.9 mph22%29.92 "Hg10 mi
1:58 PM87 °FPassing clouds.3 mph26%29.94 "Hg10 mi
12:58 PM83 °FPassing clouds.7 mph32%29.98 "Hg10 mi
11:58 AM80 °FPassing clouds.5 mph38%30.00 "Hg10 mi
10:58 AM76 °FPassing clouds.6 mph40%30.02 "Hg10 mi
9:58 AM74 °FPassing clouds.12 mph42%30.01 "Hg10 mi
8:58 AM71 °FScattered clouds.12 mph47%30.02 "Hg10 mi
Weather by CustomWeather, © 2016

See weather overviewHow to use our weather pages